| time (UTC) | temp F | wind direction | speed MPH | gust MPH | rain 1hr in | rain 24hr in | rain mn in | humidity % | barometer mb |
| 20260905234504 | 71 | 58 | 0.0 | 6.0 | 0.00 | 0.00 | 0.00 | 56 | 1015.5 |
| 20260905234004 | 72 | 50 | 1.0 | 6.0 | 0.00 | 0.00 | 0.00 | 56 | 1013.5 |
| 20260905233504 | 71 | 305 | 2.0 | 7.0 | 0.00 | 0.00 | 0.00 | 58 | 1013.5 |
| 20260905233005 | 71 | 315 | 1.0 | 8.0 | 0.00 | 0.00 | 0.00 | 58 | 1013.5 |
| 20260905232504 | 71 | 260 | 3.0 | 8.0 | 0.00 | 0.00 | 0.00 | 57 | 1014.5 |
| 20260905231505 | 70 | 315 | 0.0 | 0.0 | 0.00 | 0.00 | 0.00 | 61 | 1014.5 |
| 20260905231004 | 71 | 275 | 0.0 | 0.0 | 0.00 | 0.00 | 0.00 | 60 | 1014.5 |
| 20260905230504 | 70 | 224 | 0.0 | 5.0 | 0.00 | 0.00 | 0.00 | 61 | 1014.5 |
| 20260905230004 | 70 | 35 | 0.0 | 6.0 | 0.00 | 0.00 | 0.00 | 62 | 1014.5 |
| 20260905225004 | 69 | 267 | 3.0 | 7.0 | 0.00 | 0.00 | 0.00 | 61 | 1014.5 |
| 20260905224504 | 69 | 170 | 0.0 | 6.0 | 0.00 | 0.00 | 0.00 | 61 | 1014.5 |
| 20260905224004 | 69 | 80 | 0.0 | 7.0 | 0.00 | 0.00 | 0.00 | 63 | 1014.5 |
| 20260905223504 | 69 | 236 | 5.0 | 7.0 | 0.00 | 0.00 | 0.00 | 66 | 1014.5 |
| 20260905223004 | 69 | 342 | 1.0 | 5.0 | 0.00 | 0.06 | 0.00 | 64 | 1014.5 |
| 20260905222504 | 68 | 269 | 1.0 | 5.0 | 0.00 | 0.06 | 0.00 | 65 | 1014.5 |
| 20260905221504 | 68 | 170 | 1.0 | 5.0 | 0.00 | 0.06 | 0.00 | 63 | 1014.5 |
| 20260905221004 | 68 | 215 | 0.0 | 6.0 | 0.00 | 0.06 | 0.00 | 63 | 1015.5 |
| 20260905220505 | 68 | 238 | 1.0 | 7.0 | 0.00 | 0.06 | 0.00 | 64 | 1015.5 |
| 20260905220004 | 68 | 260 | 0.0 | 7.0 | 0.00 | 0.06 | 0.00 | 64 | 1015.5 |
| 20260905215503 | 68 | 156 | 1.0 | 7.0 | 0.00 | 0.06 | 0.00 | 65 | 1014.5 |
| 20260905215004 | 67 | 262 | 1.0 | 3.0 | 0.00 | 0.06 | 0.00 | 64 | 1014.5 |
| 20260905214504 | 68 | 282 | 0.0 | 0.0 | 0.00 | 0.06 | 0.00 | 65 | 1014.5 |
| 20260905214004 | 68 | 282 | 0.0 | 0.0 | 0.00 | 0.10 | 0.00 | 66 | 1014.5 |
| 20260905213503 | 68 | 282 | 0.0 | 2.0 | 0.00 | 0.10 | 0.00 | 67 | 1014.5 |
| 20260905213004 | 68 | 353 | 0.0 | 3.0 | 0.00 | 0.24 | 0.00 | 67 | 1014.5 |
| 20260905212504 | 67 | 40 | 1.0 | 3.0 | 0.00 | 0.30 | 0.00 | 68 | 1014.5 |
| 20260905212003 | 67 | 260 | 0.0 | 7.0 | 0.00 | 0.34 | 0.00 | 67 | 1014.5 |
| 20260905211003 | 68 | 273 | 6.0 | 8.0 | 0.00 | 0.34 | 0.00 | 67 | 1015.5 |
| 20260905210503 | 68 | 265 | 0.0 | 8.0 | 0.00 | 0.34 | 0.00 | 67 | 1015.5 |
| 20260905210004 | 68 | 132 | 5.0 | 8.0 | 0.00 | 0.34 | 0.00 | 64 | 1015.5 |
| 20260905205503 | 68 | 215 | 1.0 | 7.0 | 0.00 | 0.34 | 0.00 | 68 | 1014.5 |
| 20260905205004 | 67 | 193 | 0.0 | 0.0 | 0.00 | 0.34 | 0.00 | 70 | 1014.5 |
| 20260905204504 | 66 | 35 | 0.0 | 3.0 | 0.00 | 0.34 | 0.00 | 70 | 1014.5 |
| 20260905203504 | 67 | 230 | 2.0 | 7.0 | 0.00 | 0.34 | 0.00 | 69 | 1015.5 |
| 20260905203004 | 67 | 53 | 1.0 | 5.0 | 0.00 | 0.34 | 0.00 | 72 | 1015.5 |
| 20260905202504 | 67 | 35 | 1.0 | 6.0 | 0.00 | 0.34 | 0.00 | 72 | 1014.5 |
| 20260905202004 | 67 | 43 | 2.0 | 6.0 | 0.00 | 0.34 | 0.00 | 72 | 1014.5 |
| 20260905200507 | 66 | 213 | 3.0 | 8.0 | 0.00 | 0.34 | 0.00 | 70 | 1015.5 |
| 20260905200007 | 66 | 327 | 0.0 | 9.0 | 0.00 | 0.34 | 0.00 | 76 | 1015.5 |
| 20260905195507 | 67 | 81 | 2.0 | 9.0 | 0.00 | 0.34 | 0.00 | 77 | 1015.5 |
| 20260905195006 | 66 | 77 | 2.0 | 9.0 | 0.00 | 0.34 | 0.00 | 76 | 1015.5 |
| 20260905194006 | 66 | 57 | 2.0 | 7.0 | 0.00 | 0.34 | 0.00 | 80 | 1015.5 |
| 20260905193507 | 65 | 112 | 2.0 | 6.0 | 0.00 | 0.34 | 0.00 | 81 | 1015.5 |
| 20260905193006 | 65 | 125 | 2.0 | 7.0 | 0.00 | 0.34 | 0.00 | 82 | 1015.5 |
| 20260905192506 | 65 | 305 | 2.0 | 8.0 | 0.00 | 0.34 | 0.00 | 82 | 1015.5 |
| 20260905192007 | 65 | 1 | 2.0 | 8.0 | 0.00 | 0.34 | 0.00 | 82 | 1015.5 |
| 20260905191507 | 64 | 165 | 1.0 | 7.0 | 0.00 | 0.34 | 0.00 | 83 | 1015.5 |
| 20260905191007 | 64 | 49 | 1.0 | 6.0 | 0.00 | 0.34 | 0.00 | 84 | 1016.5 |
| 20260905190506 | 64 | 150 | 1.0 | 7.0 | 0.00 | 0.34 | 0.00 | 85 | 1016.5 |
| 20260905190006 | 64 | 73 | 3.0 | 7.0 | 0.00 | 0.34 | 0.00 | 85 | 1016.5 |
| 20260905185506 | 64 | 245 | 2.0 | 6.0 | 0.00 | 0.34 | 0.00 | 86 | 1016.5 |
| 20260905184506 | 62 | 133 | 1.0 | 6.0 | 0.00 | 0.34 | 0.00 | 88 | 1016.5 |
| 20260905184006 | 62 | 305 | 0.0 | 5.0 | 0.00 | 0.34 | 0.00 | 88 | 1016.5 |
| 20260905183506 | 62 | 44 | 1.0 | 5.0 | 0.00 | 0.34 | 0.00 | 88 | 1016.5 |
| 20260905183006 | 62 | 60 | 0.0 | 0.0 | 0.00 | 0.34 | 0.00 | 89 | 1016.5 |
| 20260905182506 | 62 | 54 | 0.0 | 0.0 | 0.00 | 0.34 | 0.00 | 89 | 1016.5 |
| 20260905182007 | 62 | 110 | 0.0 | 6.0 | 0.00 | 0.34 | 0.00 | 89 | 1016.5 |
| 20260905181506 | 62 | 232 | 0.0 | 6.0 | 0.00 | 0.34 | 0.00 | 90 | 1016.5 |
| 20260905181006 | 62 | 104 | 0.0 | 6.0 | 0.00 | 0.34 | 0.00 | 91 | 1016.5 |
| 20260905180507 | 62 | 189 | 1.0 | 6.0 | 0.00 | 0.34 | 0.00 | 91 | 1016.5 |
| 20260905180007 | 63 | 35 | 0.0 | 10.0 | 0.00 | 0.34 | 0.00 | 92 | 1016.5 |
| 20260905175507 | 62 | 86 | 0.0 | 10.0 | 0.00 | 0.34 | 0.00 | 93 | 1016.5 |
| 20260905175006 | 62 | 55 | 1.0 | 10.0 | 0.00 | 0.34 | 0.00 | 93 | 1016.5 |
| 20260905174506 | 62 | 126 | 3.0 | 7.0 | 0.00 | 0.34 | 0.00 | 93 | 1016.5 |
| 20260905174006 | 61 | 80 | 2.0 | 6.0 | 0.00 | 0.34 | 0.00 | 94 | 1016.5 |
| 20260905173506 | 60 | 89 | 1.0 | 8.0 | 0.00 | 0.34 | 0.00 | 94 | 1016.5 |
| 20260905173006 | 60 | 64 | 2.0 | 8.0 | 0.00 | 0.34 | 0.00 | 94 | 1016.5 |
| 20260905172506 | 59 | 82 | 0.0 | 5.0 | 0.00 | 0.34 | 0.00 | 95 | 1016.5 |
| 20260905172007 | 59 | 86 | 0.0 | 5.0 | 0.00 | 0.34 | 0.00 | 95 | 1016.5 |
| 20260905171506 | 60 | 84 | 0.0 | 5.0 | 0.00 | 0.34 | 0.00 | 95 | 1016.5 |
| 20260905171006 | 59 | 40 | 0.0 | 5.0 | 0.00 | 0.34 | 0.00 | 96 | 1016.5 |
| 20260905170507 | 59 | 59 | 0.0 | 8.0 | 0.00 | 0.34 | 0.00 | 96 | 1016.5 |
| 20260905165006 | 59 | 58 | 3.0 | 7.0 | 0.00 | 0.34 | 0.00 | 97 | 1016.5 |
| 20260905164506 | 59 | 60 | 0.0 | 5.0 | 0.00 | 0.34 | 0.00 | 98 | 1016.5 |
| 20260905164006 | 58 | 68 | 0.0 | 5.0 | 0.00 | 0.34 | 0.00 | 98 | 1016.5 |
| 20260905163506 | 58 | 35 | 0.0 | 5.0 | 0.00 | 0.34 | 0.00 | 98 | 1016.5 |
| 20260905163008 | 58 | 68 | 1.0 | 5.0 | 0.00 | 0.34 | 0.00 | 98 | 1016.5 |
| 20260905162506 | 58 | 78 | 0.0 | 2.0 | 0.00 | 0.34 | 0.00 | 98 | 1016.5 |
| 20260905162006 | 57 | 52 | 0.0 | 0.0 | 0.00 | 0.34 | 0.00 | 98 | 1016.5 |
| 20260905161507 | 57 | 35 | 0.0 | 0.0 | 0.00 | 0.34 | 0.00 | 98 | 1016.5 |
| 20260905161006 | 57 | 39 | 0.0 | 0.0 | 0.00 | 0.34 | 0.00 | 98 | 1016.5 |
| 20260905160506 | 56 | 80 | 0.0 | 0.0 | 0.00 | 0.34 | 0.00 | 98 | 1016.5 |
| 20260905160007 | 56 | 99 | 0.0 | 0.0 | 0.00 | 0.34 | 0.00 | 98 | 1016.5 |
| 20260905155506 | 55 | 80 | 0.0 | 0.0 | 0.00 | 0.34 | 0.00 | 98 | 1016.5 |
| 20260905155006 | 55 | 91 | 0.0 | 0.0 | 0.00 | 0.34 | 0.00 | 98 | 1016.5 |
| 20260905154006 | 55 | 80 | 0.0 | 0.0 | 0.00 | 0.34 | 0.00 | 98 | 1016.5 |
| 20260905153506 | 55 | 86 | 0.0 | 0.0 | 0.00 | 0.34 | 0.00 | 98 | 1016.5 |
| 20260905153006 | 55 | 95 | 0.0 | 0.0 | 0.00 | 0.34 | 0.00 | 98 | 1016.5 |
| 20260905152506 | 55 | 80 | 0.0 | 0.0 | 0.00 | 0.34 | 0.00 | 98 | 1016.5 |
| 20260905152006 | 55 | 113 | 0.0 | 0.0 | 0.00 | 0.34 | 0.00 | 98 | 1016.5 |
| 20260905151505 | 54 | 282 | 0.0 | 0.0 | 0.00 | 0.34 | 0.00 | 98 | 1016.5 |
| 20260905151006 | 53 | 282 | 0.0 | 0.0 | 0.00 | 0.34 | 0.00 | 98 | 1016.5 |
| 20260905150506 | 53 | 282 | 0.0 | 0.0 | 0.00 | 0.34 | 0.00 | 98 | 1016.5 |
| 20260905150006 | 53 | 282 | 0.0 | 0.0 | 0.00 | 0.34 | 0.00 | 98 | 1016.5 |
| 20260905145508 | 53 | 282 | 0.0 | 0.0 | 0.00 | 0.34 | 0.00 | 98 | 1016.5 |
| 20260905145006 | 53 | 282 | 0.0 | 0.0 | 0.00 | 0.34 | 0.00 | 98 | 1016.5 |
| 20260905144506 | 53 | 282 | 0.0 | 0.0 | 0.00 | 0.34 | 0.00 | 98 | 1016.5 |
| 20260905144006 | 53 | 282 | 0.0 | 0.0 | 0.00 | 0.34 | 0.00 | 98 | 1016.5 |
| 20260905143506 | 53 | 282 | 0.0 | 0.0 | 0.00 | 0.34 | 0.00 | 98 | 1016.5 |
| 20260905142505 | 52 | 282 | 0.0 | 0.0 | 0.00 | 0.34 | 0.00 | 98 | 1016.5 |
| 20260905142006 | 52 | 282 | 0.0 | 0.0 | 0.00 | 0.34 | 0.00 | 98 | 1016.5 |
| 20260905141006 | 52 | 282 | 0.0 | 0.0 | 0.00 | 0.34 | 0.00 | 98 | 1016.5 |
| 20260905140506 | 52 | 282 | 0.0 | 0.0 | 0.00 | 0.34 | 0.00 | 98 | 1016.5 |
| 20260905140006 | 52 | 282 | 0.0 | 0.0 | 0.00 | 0.34 | 0.00 | 98 | 1016.5 |
| 20260905135506 | 52 | 282 | 0.0 | 0.0 | 0.00 | 0.34 | 0.00 | 98 | 1015.5 |
| 20260905135006 | 52 | 282 | 0.0 | 0.0 | 0.00 | 0.34 | 0.00 | 98 | 1015.5 |
| 20260905134006 | 52 | 282 | 0.0 | 0.0 | 0.00 | 0.34 | 0.00 | 98 | 1015.5 |
| 20260905133506 | 52 | 282 | 0.0 | 0.0 | 0.00 | 0.34 | 0.00 | 98 | 1015.5 |
| 20260905133007 | 53 | 282 | 0.0 | 0.0 | 0.00 | 0.34 | 0.00 | 98 | 1015.5 |
| 20260905132006 | 53 | 282 | 0.0 | 0.0 | 0.00 | 0.34 | 0.00 | 98 | 1015.5 |
| 20260905131505 | 53 | 282 | 0.0 | 0.0 | 0.00 | 0.34 | 0.00 | 98 | 1015.5 |
| 20260905131006 | 53 | 282 | 0.0 | 0.0 | 0.00 | 0.34 | 0.00 | 98 | 1015.5 |
| 20260905130006 | 53 | 282 | 0.0 | 0.0 | 0.00 | 0.34 | 0.00 | 98 | 1015.5 |
| 20260905125505 | 53 | 282 | 0.0 | 0.0 | 0.00 | 0.34 | 0.00 | 98 | 1015.5 |
| 20260905124505 | 53 | 282 | 0.0 | 0.0 | 0.00 | 0.34 | 0.00 | 98 | 1015.5 |
| 20260905123506 | 53 | 282 | 0.0 | 0.0 | 0.00 | 0.34 | 0.00 | 98 | 1015.5 |
| 20260905123006 | 53 | 282 | 0.0 | 0.0 | 0.00 | 0.34 | 0.00 | 98 | 1015.5 |
| 20260905122507 | 53 | 282 | 0.0 | 0.0 | 0.00 | 0.34 | 0.00 | 98 | 1014.5 |
| 20260905122006 | 53 | 282 | 0.0 | 0.0 | 0.00 | 0.34 | 0.00 | 98 | 1014.5 |
| 20260905121506 | 53 | 282 | 0.0 | 0.0 | 0.00 | 0.34 | 0.00 | 98 | 1014.5 |
| 20260905121006 | 53 | 282 | 0.0 | 0.0 | 0.00 | 0.34 | 0.00 | 98 | 1015.5 |
| 20260905120505 | 53 | 282 | 0.0 | 0.0 | 0.00 | 0.34 | 0.00 | 98 | 1015.5 |
| 20260905120005 | 53 | 282 | 0.0 | 0.0 | 0.00 | 0.34 | 0.00 | 98 | 1015.5 |
| 20260905115006 | 53 | 282 | 0.0 | 0.0 | 0.00 | 0.34 | 0.00 | 98 | 1015.5 |
| 20260905114506 | 53 | 282 | 0.0 | 0.0 | 0.00 | 0.34 | 0.00 | 98 | 1015.5 |
| 20260905114006 | 53 | 282 | 0.0 | 0.0 | 0.00 | 0.34 | 0.00 | 98 | 1015.5 |
| 20260905113505 | 53 | 282 | 0.0 | 0.0 | 0.00 | 0.34 | 0.00 | 98 | 1015.5 |
| 20260905113006 | 53 | 282 | 0.0 | 0.0 | 0.00 | 0.34 | 0.00 | 98 | 1015.5 |
| 20260905112506 | 53 | 282 | 0.0 | 0.0 | 0.00 | 0.34 | 0.00 | 98 | 1015.5 |
| 20260905112005 | 53 | 282 | 0.0 | 0.0 | 0.00 | 0.34 | 0.00 | 98 | 1015.5 |
| 20260905110506 | 53 | 282 | 0.0 | 0.0 | 0.00 | 0.34 | 0.00 | 98 | 1014.5 |
| 20260905110006 | 53 | 282 | 0.0 | 0.0 | 0.00 | 0.34 | 0.00 | 98 | 1014.5 |
| 20260905105506 | 53 | 282 | 0.0 | 0.0 | 0.00 | 0.34 | 0.00 | 98 | 1014.5 |
| 20260905105006 | 53 | 282 | 0.0 | 0.0 | 0.00 | 0.34 | 0.00 | 98 | 1014.5 |
| 20260905104506 | 53 | 282 | 0.0 | 0.0 | 0.00 | 0.39 | 0.00 | 98 | 1014.5 |
| 20260905104006 | 53 | 282 | 0.0 | 0.0 | 0.00 | 0.39 | 0.00 | 98 | 1015.5 |
| 20260905103505 | 53 | 282 | 0.0 | 0.0 | 0.00 | 0.39 | 0.00 | 98 | 1015.5 |
| 20260905103005 | 53 | 282 | 0.0 | 0.0 | 0.00 | 0.39 | 0.00 | 98 | 1015.5 |
| 20260905102006 | 53 | 282 | 0.0 | 0.0 | 0.00 | 0.39 | 0.00 | 98 | 1015.5 |
| 20260905101005 | 53 | 282 | 0.0 | 0.0 | 0.00 | 0.39 | 0.00 | 98 | 1015.5 |
| 20260905100005 | 53 | 282 | 0.0 | 0.0 | 0.00 | 0.39 | 0.00 | 98 | 1015.5 |
| 20260905095505 | 54 | 282 | 0.0 | 0.0 | 0.00 | 0.39 | 0.00 | 98 | 1015.5 |
| 20260905094505 | 54 | 282 | 0.0 | 0.0 | 0.00 | 0.39 | 0.00 | 98 | 1015.5 |
| 20260905094006 | 54 | 282 | 0.0 | 0.0 | 0.00 | 0.39 | 0.00 | 98 | 1014.5 |
| 20260905093505 | 54 | 282 | 0.0 | 0.0 | 0.00 | 0.39 | 0.00 | 98 | 1014.5 |
| 20260905093005 | 54 | 282 | 0.0 | 0.0 | 0.00 | 0.39 | 0.00 | 98 | 1014.5 |
| 20260905092505 | 54 | 282 | 0.0 | 0.0 | 0.00 | 0.39 | 0.00 | 98 | 1014.5 |
| 20260905092005 | 54 | 282 | 0.0 | 0.0 | 0.00 | 0.39 | 0.00 | 98 | 1014.5 |
| 20260905090505 | 54 | 282 | 0.0 | 0.0 | 0.00 | 0.39 | 0.00 | 98 | 1015.5 |
| 20260905090005 | 54 | 305 | 0.0 | 0.0 | 0.00 | 0.39 | 0.00 | 98 | 1015.5 |
| 20260905085505 | 54 | 305 | 0.0 | 0.0 | 0.00 | 0.39 | 0.00 | 98 | 1014.5 |
| 20260905084505 | 54 | 305 | 0.0 | 0.0 | 0.00 | 0.39 | 0.00 | 98 | 1014.5 |
| 20260905083505 | 54 | 305 | 0.0 | 0.0 | 0.00 | 0.39 | 0.00 | 98 | 1014.5 |
| 20260905083007 | 54 | 305 | 0.0 | 0.0 | 0.00 | 0.39 | 0.00 | 98 | 1014.5 |
| 20260905082005 | 54 | 305 | 0.0 | 0.0 | 0.00 | 0.39 | 0.00 | 98 | 1014.5 |
| 20260905081506 | 54 | 305 | 0.0 | 0.0 | 0.00 | 0.39 | 0.00 | 98 | 1014.5 |
| 20260905080505 | 54 | 305 | 0.0 | 0.0 | 0.00 | 0.39 | 0.00 | 98 | 1014.5 |
| 20260905080005 | 54 | 305 | 0.0 | 0.0 | 0.00 | 0.39 | 0.00 | 98 | 1014.5 |
| 20260905075505 | 54 | 305 | 0.0 | 0.0 | 0.00 | 0.39 | 0.00 | 98 | 1014.5 |
| 20260905075005 | 54 | 305 | 0.0 | 0.0 | 0.00 | 0.39 | 0.00 | 98 | 1014.5 |
| 20260905074505 | 54 | 305 | 0.0 | 0.0 | 0.00 | 0.39 | 0.00 | 98 | 1014.5 |
| 20260905074005 | 54 | 305 | 0.0 | 0.0 | 0.00 | 0.39 | 0.00 | 98 | 1014.5 |
| 20260905073505 | 54 | 305 | 0.0 | 0.0 | 0.00 | 0.39 | 0.00 | 98 | 1014.5 |
| 20260905073005 | 54 | 58 | 0.0 | 0.0 | 0.00 | 0.39 | 0.00 | 98 | 1014.5 |
| 20260905072005 | 54 | 58 | 0.0 | 0.0 | 0.00 | 0.39 | 0.00 | 98 | 1014.5 |
| 20260905071506 | 54 | 58 | 0.0 | 0.0 | 0.00 | 0.39 | 0.00 | 98 | 1014.5 |
| 20260905071005 | 54 | 58 | 0.0 | 0.0 | 0.00 | 0.39 | 0.00 | 98 | 1014.5 |
| 20260905070505 | 54 | 58 | 0.0 | 0.0 | 0.00 | 0.39 | 0.00 | 98 | 1014.5 |
| 20260905070005 | 54 | 58 | 0.0 | 0.0 | 0.00 | 0.39 | 0.00 | 98 | 1014.5 |
| 20260905065004 | 54 | 58 | 0.0 | 0.0 | 0.00 | 0.39 | 0.39 | 98 | 1014.5 |
| 20260905064505 | 55 | 58 | 0.0 | 0.0 | 0.00 | 0.39 | 0.39 | 98 | 1014.5 |
| 20260905064005 | 55 | 58 | 0.0 | 0.0 | 0.00 | 0.39 | 0.39 | 98 | 1014.5 |
| 20260905063505 | 55 | 46 | 0.0 | 0.0 | 0.00 | 0.39 | 0.39 | 98 | 1014.5 |
| 20260905063005 | 54 | 282 | 0.0 | 0.0 | 0.00 | 0.39 | 0.39 | 98 | 1014.5 |
| 20260905062505 | 54 | 305 | 0.0 | 0.0 | 0.00 | 0.39 | 0.39 | 98 | 1014.5 |
| 20260905062005 | 54 | 260 | 0.0 | 0.0 | 0.00 | 0.39 | 0.39 | 98 | 1014.5 |
| 20260905061504 | 54 | 260 | 0.0 | 0.0 | 0.00 | 0.39 | 0.39 | 98 | 1014.5 |
| 20260905061005 | 54 | 260 | 0.0 | 0.0 | 0.00 | 0.39 | 0.39 | 98 | 1014.5 |
| 20260905060505 | 55 | 260 | 0.0 | 0.0 | 0.00 | 0.39 | 0.39 | 98 | 1014.5 |
| 20260905060005 | 55 | 260 | 0.0 | 0.0 | 0.00 | 0.39 | 0.39 | 98 | 1014.5 |
| 20260905055505 | 55 | 260 | 0.0 | 0.0 | 0.00 | 0.39 | 0.39 | 98 | 1014.5 |
| 20260905055005 | 55 | 260 | 0.0 | 0.0 | 0.00 | 0.39 | 0.39 | 98 | 1014.5 |
| 20260905054505 | 55 | 260 | 0.0 | 0.0 | 0.00 | 0.39 | 0.39 | 98 | 1014.5 |
| 20260905054004 | 55 | 260 | 0.0 | 0.0 | 0.00 | 0.39 | 0.39 | 98 | 1014.5 |
| 20260905053505 | 55 | 260 | 0.0 | 0.0 | 0.00 | 0.39 | 0.39 | 98 | 1014.5 |
| 20260905053005 | 55 | 260 | 0.0 | 0.0 | 0.00 | 0.39 | 0.39 | 98 | 1014.5 |
| 20260905052505 | 55 | 260 | 0.0 | 0.0 | 0.00 | 0.39 | 0.39 | 98 | 1014.5 |
| 20260905052005 | 55 | 260 | 0.0 | 0.0 | 0.00 | 0.39 | 0.39 | 98 | 1014.5 |
| 20260905051505 | 55 | 260 | 0.0 | 0.0 | 0.00 | 0.39 | 0.39 | 98 | 1014.5 |
| 20260905051004 | 55 | 260 | 0.0 | 0.0 | 0.00 | 0.39 | 0.39 | 97 | 1014.5 |
| 20260905050505 | 55 | 260 | 0.0 | 0.0 | 0.00 | 0.39 | 0.39 | 97 | 1014.5 |
| 20260905050004 | 54 | 260 | 0.0 | 0.0 | 0.00 | 0.39 | 0.39 | 97 | 1014.5 |
| 20260905045505 | 54 | 260 | 0.0 | 0.0 | 0.00 | 0.39 | 0.39 | 97 | 1014.5 |
| 20260905044505 | 54 | 282 | 0.0 | 0.0 | 0.00 | 0.39 | 0.39 | 97 | 1014.5 |
| 20260905043504 | 54 | 282 | 0.0 | 0.0 | 0.00 | 0.39 | 0.39 | 97 | 1014.5 |
| 20260905042505 | 54 | 282 | 0.0 | 0.0 | 0.00 | 0.39 | 0.39 | 97 | 1014.5 |
| 20260905042004 | 54 | 282 | 0.0 | 0.0 | 0.00 | 0.39 | 0.39 | 97 | 1014.5 |
| 20260905041505 | 54 | 282 | 0.0 | 0.0 | 0.00 | 0.39 | 0.39 | 96 | 1014.5 |
| 20260905041005 | 54 | 282 | 0.0 | 0.0 | 0.00 | 0.39 | 0.39 | 96 | 1014.5 |
| 20260905040505 | 54 | 282 | 0.0 | 0.0 | 0.00 | 0.39 | 0.39 | 96 | 1014.5 |
| 20260905035504 | 54 | 305 | 0.0 | 0.0 | 0.00 | 0.39 | 0.39 | 96 | 1014.5 |
| 20260905035005 | 54 | 305 | 0.0 | 0.0 | 0.00 | 0.39 | 0.39 | 96 | 1014.5 |
| 20260905034504 | 55 | 283 | 0.0 | 0.0 | 0.00 | 0.39 | 0.39 | 96 | 1014.5 |
| 20260905033505 | 55 | 305 | 0.0 | 0.0 | 0.00 | 0.39 | 0.39 | 96 | 1014.5 |
| 20260905033005 | 55 | 260 | 0.0 | 0.0 | 0.00 | 0.39 | 0.39 | 96 | 1014.5 |
| 20260905032504 | 55 | 305 | 0.0 | 0.0 | 0.00 | 0.39 | 0.39 | 96 | 1014.5 |
| 20260905031504 | 55 | 305 | 0.0 | 0.0 | 0.00 | 0.39 | 0.39 | 95 | 1014.5 |
| 20260905031004 | 55 | 305 | 0.0 | 0.0 | 0.00 | 0.39 | 0.39 | 95 | 1013.5 |
| 20260905030504 | 55 | 305 | 0.0 | 0.0 | 0.00 | 0.39 | 0.39 | 95 | 1013.5 |
| 20260905030005 | 55 | 305 | 0.0 | 0.0 | 0.00 | 0.39 | 0.39 | 95 | 1013.5 |
| 20260905025005 | 55 | 305 | 0.0 | 0.0 | 0.00 | 0.39 | 0.39 | 95 | 1013.5 |
| 20260905023505 | 56 | 305 | 0.0 | 0.0 | 0.00 | 0.39 | 0.39 | 94 | 1013.5 |
| 20260905022504 | 56 | 305 | 0.0 | 0.0 | 0.00 | 0.39 | 0.39 | 94 | 1013.5 |
| 20260905022006 | 56 | 305 | 0.0 | 0.0 | 0.00 | 0.39 | 0.39 | 94 | 1013.5 |
| 20260905021506 | 56 | 305 | 0.0 | 0.0 | 0.00 | 0.39 | 0.39 | 94 | 1013.5 |
| 20260905021004 | 57 | 305 | 0.0 | 0.0 | 0.00 | 0.39 | 0.39 | 94 | 1013.5 |
| 20260905020504 | 57 | 192 | 0.0 | 0.0 | 0.00 | 0.39 | 0.39 | 94 | 1013.5 |
| 20260905020005 | 57 | 205 | 0.0 | 0.0 | 0.00 | 0.39 | 0.39 | 94 | 1013.5 |
| 20260905015504 | 57 | 58 | 0.0 | 0.0 | 0.00 | 0.39 | 0.39 | 94 | 1013.5 |
| 20260905015004 | 57 | 58 | 0.0 | 0.0 | 0.00 | 0.39 | 0.39 | 94 | 1013.5 |
| 20260905014505 | 57 | 58 | 0.0 | 0.0 | 0.00 | 0.39 | 0.39 | 94 | 1013.5 |
| 20260905014005 | 57 | 70 | 0.0 | 0.0 | 0.00 | 0.39 | 0.39 | 94 | 1013.5 |
| 20260905013504 | 57 | 58 | 0.0 | 0.0 | 0.00 | 0.39 | 0.39 | 94 | 1013.5 |
| 20260905013005 | 57 | 58 | 0.0 | 0.0 | 0.00 | 0.39 | 0.39 | 94 | 1013.5 |
| 20260905012504 | 57 | 170 | 0.0 | 0.0 | 0.00 | 0.39 | 0.39 | 93 | 1012.5 |
| 20260905011504 | 58 | 170 | 0.0 | 0.0 | 0.00 | 0.39 | 0.39 | 93 | 1012.5 |
| 20260905011004 | 58 | 170 | 0.0 | 0.0 | 0.00 | 0.39 | 0.39 | 93 | 1012.5 |
| 20260905010504 | 58 | 170 | 0.0 | 0.0 | 0.00 | 0.39 | 0.39 | 93 | 1012.5 |
| 20260905010005 | 58 | 170 | 0.0 | 0.0 | 0.00 | 0.39 | 0.39 | 93 | 1012.5 |
| 20260905005504 | 58 | 80 | 0.0 | 0.0 | 0.00 | 0.39 | 0.39 | 93 | 1012.5 |
| 20260905005004 | 58 | 101 | 0.0 | 0.0 | 0.00 | 0.39 | 0.39 | 93 | 1012.5 |
| 20260905004504 | 58 | 156 | 0.0 | 0.0 | 0.00 | 0.39 | 0.39 | 94 | 1012.5 |
| 20260905004004 | 58 | 148 | 0.0 | 0.0 | 0.00 | 0.39 | 0.39 | 94 | 1012.5 |
| 20260905003004 | 58 | 170 | 0.0 | 0.0 | 0.00 | 0.39 | 0.39 | 93 | 1012.5 |
| 20260905002504 | 58 | 170 | 0.0 | 0.0 | 0.00 | 0.39 | 0.39 | 94 | 1012.5 |
| 20260905002004 | 59 | 142 | 0.0 | 0.0 | 0.00 | 0.39 | 0.39 | 94 | 1012.5 |
| 20260905001505 | 59 | 140 | 0.0 | 0.0 | 0.00 | 0.39 | 0.39 | 94 | 1012.5 |
| 20260905001005 | 59 | 178 | 0.0 | 0.0 | 0.00 | 0.39 | 0.39 | 93 | 1012.5 |
| 20260905000503 | 58 | 148 | 0.0 | 0.0 | 0.00 | 0.39 | 0.39 | 93 | 1012.5 |
| 20260905000005 | 58 | 305 | 0.0 | 0.0 | 0.00 | 0.39 | 0.39 | 93 | 1012.5 |
| 20260904235504 | 58 | 305 | 0.0 | 0.0 | 0.00 | 0.39 | 0.39 | 93 | 1012.5 |
| 20260904235004 | 58 | 305 | 0.0 | 2.0 | 0.00 | 0.39 | 0.39 | 94 | 1012.5 |